Location: Oshawa
(43.9000°N, 78.8670°W)
Time: 08:09:45
(UTC-04:00)

Amateur Radio Satellites - All Passes

Search period start: 30 July 2015 07:39
Search period end: 31 July 2015 07:39
Location: Oshawa, 43.9000°N, 78.8670°W

Satellite Date Start Highest point End Downlink Frequencies (MHz)
Time Altitude Azimuth
RS-15 30 Jul 07:46:09 07:57:56 81° 238° (WSW) 08:10:08 29.354- 29.394
GONETS M04 30 Jul 07:52:59 08:01:34 59° 284° (WNW) 08:10:08
CUBESAT XI-V 30 Jul 07:55:38 07:58:39 16° 271° (W) 08:01:30 437.345
AO-7 30 Jul 08:04:04 08:09:14 18° 314° (NW) 08:14:04 29.400- 29.500
Cubesat XI-IV 30 Jul 08:21:28 08:26:37 49° 290° (WNW) 08:31:43 437.490
AUBIESAT-1 30 Jul 08:23:28 08:25:35 14° 55° (NE) 08:27:56 437.475
PRISM 30 Jul 08:23:43 08:27:14 25° 265° (W) 08:30:41 437.425
HO-68 30 Jul 08:24:28 08:28:12 15° 85° (E) 08:32:22 435.675
BEESAT 2 30 Jul 08:24:41 08:27:46 20° 41° (NE) 08:30:52 435.950
BRITE-PL 30 Jul 08:29:07 08:32:57 31° 96° (E) 08:37:02 437.365/2234.400
CUTE 1.7 + AOD 2 30 Jul 08:43:48 08:45:31 12° 87° (E) 08:47:26 437.475
CANX-2 30 Jul 08:50:59 08:53:43 17° 90° (E) 08:56:35 2200.000
GOMX 1 30 Jul 08:51:36 08:55:36 32° 96° (E) 08:59:51 467.674
DOVE 4 30 Jul 08:51:42 08:55:06 21° 92° (E) 08:58:46 437.250
BEESAT 3 30 Jul 09:07:25 09:11:26 56° 52° (NE) 09:15:22 437.485
STRAND 1 30 Jul 09:09:34 09:11:23 11° 274° (W) 09:12:52 437.568
Cosmos 2499 30 Jul 09:12:31 09:19:51 71° 282° (WNW) 09:27:49 435.465 / 435.565
AAUSAT CUBESAT 2 30 Jul 09:16:22 09:18:44 15° 89° (E) 09:21:16 437.432
CINEMA 3 30 Jul 09:18:01 09:21:11 18° 91° (E) 09:24:34 145.822/145.860
CUTE-I 30 Jul 09:19:22 09:22:53 18° 300° (WNW) 09:26:13 437.470
M-CUBED/EXP-1 PRIME 30 Jul 09:24:09 09:28:05 62° 68° (ENE) 09:32:24 437.505
UNISAT 6 30 Jul 09:37:37 09:39:42 14° 62° (ENE) 09:42:00 437.425
AIST 2 30 Jul 09:42:03 09:45:40 27° 44° (NE) 09:49:16 435.215
SO-50 30 Jul 09:50:39 09:54:32 26° 114° (ESE) 09:58:36 436.795
UWE-3 30 Jul 09:53:33 09:56:15 16° 89° (E) 09:59:10 435.000/436.395/437.385
PCSat 30 Jul 09:55:21 10:00:26 44° 114° (ESE) 10:05:36 145.827
AUBIESAT-1 30 Jul 09:55:43 09:59:42 69° 253° (WSW) 10:04:03 437.475
GONETS M04 30 Jul 09:57:19 10:00:54 12° 310° (NW) 10:03:55
FUNcube-1 30 Jul 09:58:07 10:00:03 13° 87° (E) 10:02:14 145.935
RS-15 30 Jul 10:00:30 10:08:56 22° 258° (WSW) 10:16:50 29.354- 29.394
BEESAT 2 30 Jul 10:02:08 10:06:07 52° 241° (WSW) 10:10:01 435.950
CUBEBUG 2 30 Jul 10:03:33 10:07:20 25° 93° (E) 10:11:15 437.445
COMPASS 1 30 Jul 10:07:03 10:11:16 63° 100° (E) 10:15:28 437.405
BRITE-PL 30 Jul 10:07:51 10:11:27 26° 291° (WNW) 10:15:10 437.365/2234.400
HO-68 30 Jul 10:09:54 10:17:08 84° 106° (ESE) 10:24:21 435.675
Oscar 11 30 Jul 10:13:34 10:17:20 28° 95° (E) 10:21:09 145.826/435.025
POPSAT HIP 1 30 Jul 10:17:01 10:18:55 13° 63° (ENE) 10:20:59 437.405
CUTE 1.7 + AOD 2 30 Jul 10:17:39 10:21:56 63° 286° (WNW) 10:26:09 437.475
SEEDS 30 Jul 10:18:22 10:22:40 77° 286° (WNW) 10:26:54 437.485
TIGRISAT 30 Jul 10:19:49 10:23:41 33° 69° (ENE) 10:27:41 435.000
ANTELSAT 30 Jul 10:20:33 10:24:29 35° 70° (ENE) 10:28:33 437.575/2403.000
QB50P2 30 Jul 10:23:26 10:25:55 16° 64° (ENE) 10:28:34 145.880/145.840
CANX-2 30 Jul 10:25:47 10:29:57 46° 288° (WNW) 10:34:03 2200.000
DOVE 4 30 Jul 10:28:47 10:33:03 42° 288° (WNW) 10:37:32 437.250
GOMX 1 30 Jul 10:29:57 10:33:41 27° 291° (WNW) 10:37:32 467.674
BUGSAT 1 30 Jul 10:33:27 10:34:47 12° 63° (ENE) 10:36:19 437.445
HUMSAT D 30 Jul 10:40:07 10:42:28 15° 89° (E) 10:45:00 437.325/437.525
BEESAT 3 30 Jul 10:46:37 10:48:57 15° 249° (WSW) 10:51:08 437.485
DUCHIFAT 1 30 Jul 10:49:24 10:52:52 27° 68° (ENE) 10:56:26 145.980
AAUSAT CUBESAT 2 30 Jul 10:50:35 10:54:41 50° 287° (WNW) 10:58:44 437.432
QB50P1 30 Jul 10:50:50 10:54:26 29° 69° (ENE) 10:58:05 145.935-145.965
DELFI C3 30 Jul 10:52:01 10:56:00 50° 99° (E) 10:59:56 145.870
NANOSAT C BR1 30 Jul 10:52:56 10:56:33 30° 69° (ENE) 11:00:15 145.865
CINEMA 3 30 Jul 10:54:10 10:58:39 50° 287° (WNW) 11:03:18 145.822/145.860
M-CUBED/EXP-1 PRIME 30 Jul 11:01:38 11:03:29 12° 269° (W) 11:05:10 437.505
50 SAT 30 Jul 11:02:26 11:03:07 10° 87° (E) 11:04:01 437.505
ZACube-1 30 Jul 11:09:39 11:14:11 73° 102° (ESE) 11:18:45 437.345
Cosmos 2499 30 Jul 11:10:59 11:15:01 14° 307° (NW) 11:18:43 435.465 / 435.565
UNISAT 6 30 Jul 11:11:39 11:15:58 67° 259° (WSW) 11:20:24 437.425
AIST 2 30 Jul 11:20:27 11:24:19 36° 243° (WSW) 11:28:05 435.215
YUBILEINY 30 Jul 11:23:51 11:31:52 38° 69° (ENE) 11:40:00 435.215
UWE-3 30 Jul 11:28:40 11:33:10 57° 286° (WNW) 11:37:43 435.000/436.395/437.385
SO-50 30 Jul 11:30:15 11:34:52 45° 312° (NW) 11:39:37 436.795
POLYITAN 1 30 Jul 11:32:07 11:36:19 82° 78° (ENE) 11:40:33 437.675
FUNcube-1 30 Jul 11:32:23 11:36:54 68° 285° (WNW) 11:41:26 145.935
PCSat 30 Jul 11:39:10 11:44:02 32° 313° (NW) 11:48:51 145.827
CUBEBUG 2 30 Jul 11:39:53 11:44:05 36° 290° (WNW) 11:48:21 437.445
AISAT 30 Jul 11:41:56 11:45:41 27° 95° (E) 11:49:29 437.250
AIST 1 30 Jul 11:42:03 11:43:07 11° 84° (E) 11:44:25
COMPASS 1 30 Jul 11:44:18 11:46:28 13° 297° (WNW) 11:48:27 437.405
O/OREOS (USA 219) 30 Jul 11:45:03 11:49:21 39° 60° (ENE) 11:53:40 437.305
Oscar 11 30 Jul 11:49:43 11:53:29 28° 291° (WNW) 11:57:10 145.826/435.025
POPSAT HIP 1 30 Jul 11:50:09 11:54:19 64° 259° (WSW) 11:58:30 437.405
UKube-1 30 Jul 11:50:16 11:54:28 49° 100° (E) 11:58:40 .
TIGRISAT 30 Jul 11:56:58 12:00:31 24° 267° (W) 12:04:04 435.000
QB50P2 30 Jul 11:57:20 12:01:26 51° 260° (W) 12:05:35 145.880/145.840
ANTELSAT 30 Jul 11:57:54 12:01:23 23° 268° (W) 12:04:52 437.575/2403.000
HO-68 30 Jul 11:58:50 12:04:09 22° 304° (NW) 12:09:14 435.675
Cosmos 2491 30 Jul 11:59:45 12:06:42 29° 83° (E) 12:13:54 435.465 / 435.565
CUBEBUG 1 30 Jul 12:02:56 12:06:31 25° 94° (E) 12:10:10 437.445
BUGSAT 1 30 Jul 12:05:44 12:09:47 68° 258° (WSW) 12:13:49 437.445
HUMSAT D 30 Jul 12:14:21 12:18:35 54° 287° (WNW) 12:22:49 437.325/437.525
DX 1 30 Jul 12:14:58 12:19:19 82° 285° (WNW) 12:23:39 434.975-435.025
VELOX 1 30 Jul 12:21:14 12:25:38 68° 102° (ESE) 12:30:00 145.980
ESTCUBE 1 30 Jul 12:24:27 12:28:51 52° 100° (E) 12:33:14 437.505/2401.250
DUCHIFAT 1 30 Jul 12:25:00 12:28:38 28° 265° (W) 12:32:14 145.980
QB50P1 30 Jul 12:26:43 12:30:17 26° 266° (W) 12:33:49 145.935-145.965
DELFI C3 30 Jul 12:28:15 12:30:42 15° 295° (WNW) 12:33:01 145.870
NANOSAT C BR1 30 Jul 12:28:54 12:32:24 25° 266° (W) 12:35:51 145.865
50 SAT 30 Jul 12:34:14 12:38:11 65° 285° (WNW) 12:42:07 437.505
SPROUT 30 Jul 12:47:10 12:50:36 23° 93° (E) 12:54:06 437.525
ZACube-1 30 Jul 12:47:42 12:50:01 14° 297° (WNW) 12:52:11 437.345
Cosmos 2504 30 Jul 13:07:18 13:13:21 22° 62° (ENE) 13:19:53 435.465 / 435.565
TISAT 1 30 Jul 13:07:19 13:10:40 23° 94° (E) 13:14:06 437.305
Oscar 19 30 Jul 13:12:43 13:17:27 40° 69° (ENE) 13:22:15 437.125/150
SO-50 30 Jul 13:14:49 13:16:43 12° 334° (NNW) 13:18:32 436.795
AIST 1 30 Jul 13:15:54 13:20:14 68° 280° (W) 13:24:34
AISAT 30 Jul 13:18:23 13:22:15 30° 292° (WNW) 13:26:05 437.250
YUBILEINY 30 Jul 13:20:34 13:29:01 52° 270° (W) 13:37:24 435.215
O/OREOS (USA 219) 30 Jul 13:24:56 13:28:34 23° 257° (WSW) 13:32:07 437.305
UKube-1 30 Jul 13:27:20 13:30:16 18° 296° (WNW) 13:33:04 .
AO-7 30 Jul 13:32:00 13:34:34 12° 40° (NE) 13:37:34 29.400- 29.500
CUBEBUG 1 30 Jul 13:39:04 13:42:54 31° 291° (WNW) 13:46:41 437.445
Cosmos 2491 30 Jul 13:54:16 14:03:00 66° 283° (WNW) 14:11:42 435.465 / 435.565
Gurwin Techsat 1B 30 Jul 13:55:39 14:00:17 32° 67° (ENE) 14:05:00 435.225
VELOX 1 30 Jul 13:59:25 14:01:41 14° 298° (WNW) 14:03:47 145.980
ESTCUBE 1 30 Jul 14:02:20 14:05:21 18° 296° (WNW) 14:08:15 437.505/2401.250
BEESAT 30 Jul 14:22:46 14:26:44 26° 94° (E) 14:30:46 436.000
SPROUT 30 Jul 14:22:52 14:26:45 33° 290° (WNW) 14:30:35 437.525
ITAMSAT 1 30 Jul 14:28:54 14:33:59 56° 71° (ENE) 14:39:07 435.822/435.867
JAS-2 30 Jul 14:32:59 14:38:09 30° 61° (ENE) 14:44:01 435.910
SWISSCUBE 30 Jul 14:42:37 14:47:12 44° 98° (E) 14:51:45 437.505
TISAT 1 30 Jul 14:42:44 14:46:29 32° 291° (WNW) 14:50:13 437.305
CUSAT 1 30 Jul 14:44:09 14:46:00 13° 71° (ENE) 14:48:17 437.405
Oscar 19 30 Jul 14:52:40 14:56:59 26° 267° (W) 15:01:13 437.125/150
Cosmos 2504 30 Jul 14:58:20 15:06:43 86° 263° (W) 15:15:22 435.465 / 435.565
ITUPSAT 1 30 Jul 15:02:30 15:07:16 63° 101° (ESE) 15:12:00 437.325
AO-7 30 Jul 15:17:39 15:25:25 46° 62° (ENE) 15:33:18 29.400- 29.500
STARS 30 Jul 15:26:21 15:27:45 12° 87° (E) 15:29:24 437.465
Gurwin Techsat 1B 30 Jul 15:35:21 15:40:13 35° 264° (W) 15:45:05 435.225
KKS-1 30 Jul 15:46:18 15:50:16 31° 96° (E) 15:54:16 437.445
DANDE 30 Jul 15:51:09 15:54:24 36° 78° (ENE) 15:58:37 436.750
HORYU 2 30 Jul 15:51:29 15:55:44 48° 71° (ENE) 16:00:04 437.375
Cosmos 2491 30 Jul 15:57:28 16:02:05 14° 308° (NW) 16:06:11 435.465 / 435.565
BEESAT 30 Jul 16:00:17 16:04:40 36° 291° (WNW) 16:08:59 436.000
GONETS M04 30 Jul 16:06:05 16:11:14 17° 55° (NE) 16:16:48
ITAMSAT 1 30 Jul 16:10:06 16:13:55 19° 269° (W) 16:17:33 435.822/435.867
JAS-2 30 Jul 16:17:02 16:22:53 52° 263° (W) 16:29:31 435.910
SWISSCUBE 30 Jul 16:21:04 16:24:48 22° 295° (WNW) 16:28:24 437.505
CUSAT 1 30 Jul 16:24:45 16:28:35 55° 261° (W) 16:33:39 437.405
MOZHAYETS 4 30 Jul 16:25:35 16:26:19 10° 85° (E) 16:27:22
ITUPSAT 1 30 Jul 16:41:37 16:44:42 17° 298° (WNW) 16:47:37 437.325
SO-50 30 Jul 16:41:37 16:42:40 11° 23° (NNE) 16:43:52 436.795
Cosmos 2504 30 Jul 16:52:28 16:57:57 19° 281° (W) 17:03:06 435.465 / 435.565
PCSat 30 Jul 17:00:02 17:02:01 12° 30° (NNE) 17:04:12 145.827
STARS 30 Jul 17:00:21 17:04:46 71° 285° (WNW) 17:09:10 437.465
AO-7 30 Jul 17:10:20 17:18:17 45° 261° (W) 17:26:11 29.400- 29.500
Cosmos 2499 30 Jul 17:12:20 17:13:26 10° 48° (NE) 17:15:13 435.465 / 435.565
KKS-1 30 Jul 17:23:02 17:26:49 27° 293° (WNW) 17:30:32 437.445
CUTE-I 30 Jul 17:23:20 17:27:02 20° 62° (ENE) 17:30:54 437.470
HORYU 2 30 Jul 17:29:38 17:32:41 17° 269° (W) 17:35:37 437.375
DANDE 30 Jul 17:35:14 17:37:29 15° 264° (W) 17:39:54 436.750
MOZHAYETS 4 30 Jul 17:59:36 18:04:17 83° 284° (WNW) 18:08:53
GONETS M04 30 Jul 18:01:10 18:09:55 77° 80° (E) 18:18:40
Cubesat XI-IV 30 Jul 18:05:09 18:10:12 44° 69° (ENE) 18:15:17 437.490
CUBESAT XI-V 30 Jul 18:13:29 18:15:17 12° 87° (E) 18:17:20 437.345
SO-50 30 Jul 18:20:03 18:24:40 38° 46° (NE) 18:29:15 436.795
PCSat 30 Jul 18:41:37 18:46:53 49° 52° (NE) 18:52:08 145.827
HO-68 30 Jul 18:56:01 18:59:51 16° 51° (NE) 19:04:00 435.675
Cosmos 2499 30 Jul 19:00:57 19:09:17 49° 73° (ENE) 19:17:52 435.465 / 435.565
CUTE-I 30 Jul 19:01:21 19:06:41 63° 258° (WSW) 19:12:01 437.470
VERMONT LUNAR 30 Jul 19:20:00 19:21:52 15° 154° (SSE) 19:23:46 437.305
STRAND 1 30 Jul 19:35:52 19:40:08 27° 94° (E) 19:44:28 437.568
CUTE 1.7 + AOD 2 30 Jul 19:38:50 19:40:19 12° 62° (ENE) 19:42:00 437.475
MOZHAYETS 4 30 Jul 19:39:50 19:40:48 10° 301° (WNW) 19:41:30
BRITE-PL 30 Jul 19:41:44 19:45:52 41° 72° (ENE) 19:49:51 437.365/2234.400
CANX-2 30 Jul 19:45:51 19:48:19 16° 64° (ENE) 19:50:56 2200.000
Cubesat XI-IV 30 Jul 19:45:59 19:50:30 26° 267° (W) 19:54:56 437.490
CUBESAT XI-V 30 Jul 19:48:44 19:53:21 71° 285° (WNW) 19:57:54 437.345
GONETS M04 30 Jul 19:59:22 20:05:58 24° 279° (W) 20:12:13
DOVE 4 30 Jul 19:59:29 20:02:40 22° 67° (ENE) 20:05:56 437.250
SO-50 30 Jul 20:00:44 20:05:12 33° 244° (WSW) 20:09:30 436.795
GOMX 1 30 Jul 20:01:42 20:05:37 38° 71° (ENE) 20:09:30 467.674
PRISM 30 Jul 20:03:51 20:07:42 38° 98° (E) 20:11:32 437.425
AAUSAT CUBESAT 2 30 Jul 20:09:12 20:11:10 13° 63° (ENE) 20:13:20 437.432
RS-15 30 Jul 20:09:17 20:11:23 11° 96° (E) 20:14:37 29.354- 29.394
CINEMA 3 30 Jul 20:22:03 20:24:46 18° 65° (ENE) 20:27:40 145.822/145.860
PCSat 30 Jul 20:25:33 20:30:04 26° 251° (WSW) 20:34:27 145.827
HO-68 30 Jul 20:39:25 20:46:30 72° 70° (ENE) 20:53:39 435.675
PHONESAT 2.4 30 Jul 20:43:26 20:44:38 12° 150° (SSE) 20:45:56 2401.200-2431.200
UWE-3 30 Jul 20:52:59 20:55:13 15° 63° (ENE) 20:57:39 435.000/436.395/437.385
Cosmos 2499 30 Jul 20:54:22 21:02:22 41° 272° (W) 21:10:22 435.465 / 435.565
VERMONT LUNAR 30 Jul 20:55:10 20:58:08 37° 170° (S) 21:01:07 437.305
FUNcube-1 30 Jul 20:56:18 20:57:47 12° 62° (ENE) 20:59:29 145.935
COMPASS 1 30 Jul 20:59:16 21:03:21 51° 73° (ENE) 21:07:29 437.405
CUBEBUG 2 30 Jul 21:03:45 21:07:01 23° 67° (ENE) 21:10:26 437.445
Oscar 11 30 Jul 21:09:47 21:13:25 27° 68° (ENE) 21:17:07 145.826/435.025
SEEDS 30 Jul 21:11:19 21:15:33 87° 77° (ENE) 21:19:51 437.485
CUTE 1.7 + AOD 2 30 Jul 21:11:25 21:15:41 76° 258° (WSW) 21:19:59 437.475
STRAND 1 30 Jul 21:14:43 21:19:28 39° 292° (WNW) 21:24:10 437.568
CANX-2 30 Jul 21:19:38 21:23:50 55° 260° (W) 21:28:04 2200.000
BRITE-PL 30 Jul 21:21:29 21:24:37 18° 268° (W) 21:27:33 437.365/2234.400
HUMSAT D 30 Jul 21:34:09 21:35:58 13° 63° (ENE) 21:37:58 437.325/437.525
DOVE 4 30 Jul 21:36:34 21:40:20 32° 264° (W) 21:44:04 437.250
DX 1 30 Jul 21:38:52 21:40:17 12° 61° (ENE) 21:41:55 434.975-435.025
PRISM 30 Jul 21:39:52 21:42:54 20° 295° (WNW) 21:45:50 437.425
DELFI C3 30 Jul 21:40:21 21:44:04 36° 71° (ENE) 21:47:51 145.870
GOMX 1 30 Jul 21:40:54 21:43:59 19° 268° (W) 21:46:53 467.674
AAUSAT CUBESAT 2 30 Jul 21:42:08 21:46:18 63° 259° (W) 21:50:31 437.432
CINEMA 3 30 Jul 21:57:45 22:01:42 43° 262° (W) 22:05:43 145.822/145.860
ZACube-1 30 Jul 22:06:56 22:11:05 65° 75° (ENE) 22:15:21 437.345
Cosmos 2491 30 Jul 22:08:08 22:12:32 15° 53° (NE) 22:17:26 435.465 / 435.565
RS-15 30 Jul 22:10:59 22:21:30 60° 115° (ESE) 22:32:30 29.354- 29.394
PHONESAT 2.4 30 Jul 22:18:50 22:22:01 33° 165° (SSE) 22:25:14 2401.200-2431.200
ISS 30 Jul 22:19:15 22:22:22 43° 142° (SE) 22:25:29 145.825
UWE-3 30 Jul 22:27:12 22:31:18 57° 260° (W) 22:35:33 435.000/436.395/437.385
FUNcube-1 30 Jul 22:29:23 22:33:33 73° 258° (WSW) 22:37:50 145.935
HO-68 30 Jul 22:29:27 22:34:58 23° 270° (W) 22:40:17 435.675
VERMONT LUNAR 30 Jul 22:31:35 22:34:38 42° 186° (S) 22:37:38 437.305
COMPASS 1 30 Jul 22:36:51 22:39:22 15° 271° (W) 22:41:44 437.405
M-CUBED/EXP-1 PRIME 30 Jul 22:38:06 22:42:41 44° 103° (ESE) 22:47:13 437.505
CUBEBUG 2 30 Jul 22:39:47 22:43:35 32° 264° (W) 22:47:25 437.445
AISAT 30 Jul 22:41:02 22:44:51 30° 68° (ENE) 22:48:42 437.250
Oscar 11 30 Jul 22:45:42 22:49:32 29° 265° (W) 22:53:20 145.826/435.025
UKube-1 30 Jul 22:46:13 22:50:23 50° 72° (ENE) 22:54:35 .
CUBEBUG 1 30 Jul 23:00:30 23:04:06 26° 68° (ENE) 23:07:45 437.445
UNISAT 6 30 Jul 23:02:26 23:06:11 24° 93° (E) 23:10:02 437.425
HUMSAT D 30 Jul 23:07:06 23:11:12 65° 259° (W) 23:15:24 437.325/437.525
AUBIESAT-1 30 Jul 23:08:59 23:13:46 76° 107° (ESE) 23:18:26 437.475
DX 1 30 Jul 23:11:38 23:15:59 80° 257° (WSW) 23:20:20 434.975-435.025
DELFI C3 30 Jul 23:16:18 23:19:17 19° 268° (W) 23:22:12 145.870
POLYITAN 1 30 Jul 23:17:58 23:19:38 12° 88° (E) 23:21:32 437.675
50 SAT 30 Jul 23:18:55 23:22:48 82° 75° (ENE) 23:26:45 437.505
VELOX 1 30 Jul 23:19:54 23:24:17 72° 75° (ENE) 23:28:42 145.980
AIST 1 30 Jul 23:21:50 23:25:40 32° 74° (ENE) 23:29:30
ESTCUBE 1 30 Jul 23:25:10 23:29:37 57° 73° (ENE) 23:34:05 437.505/2401.250
POPSAT HIP 1 30 Jul 23:34:40 23:37:36 18° 91° (E) 23:40:39 437.405
QB50P2 30 Jul 23:41:37 23:44:58 23° 93° (E) 23:48:23 145.880/145.840
SPROUT 30 Jul 23:42:55 23:46:12 22° 67° (ENE) 23:49:35 437.525
TIGRISAT 30 Jul 23:45:51 23:50:30 62° 101° (E) 23:55:11 435.000
ZACube-1 30 Jul 23:46:30 23:48:01 11° 273° (W) 23:49:18 437.345
ANTELSAT 30 Jul 23:46:56 23:51:37 67° 101° (ESE) 23:56:19 437.575/2403.000
BUGSAT 1 30 Jul 23:47:38 23:49:56 15° 91° (E) 23:52:24 437.445
ISS 30 Jul 23:55:50 23:58:51 34° 340° (NNW) 00:01:53 145.825
PHONESAT 2.4 30 Jul 23:56:19 23:59:42 48° 182° (S) 00:03:06 2401.200-2431.200
BEESAT 2 30 Jul 23:57:28 00:00:27 20° 113° (ESE) 00:03:31 435.950
TISAT 1 31 Jul 00:01:02 00:04:12 22° 67° (ENE) 00:07:28 437.305
Cosmos 2491 31 Jul 00:02:49 00:11:31 69° 78° (ENE) 00:20:12 435.465 / 435.565
DUCHIFAT 1 31 Jul 00:07:32 00:11:31 39° 97° (E) 00:15:32 145.980
VERMONT LUNAR 31 Jul 00:08:35 00:10:58 19° 202° (SSW) 00:13:18 437.305
QB50P1 31 Jul 00:09:32 00:13:36 43° 98° (E) 00:17:41 145.935-145.965
NANOSAT C BR1 31 Jul 00:11:24 00:15:29 45° 99° (E) 00:19:35 145.865
M-CUBED/EXP-1 PRIME 31 Jul 00:13:16 00:17:13 25° 299° (WNW) 00:21:04 437.505
AISAT 31 Jul 00:17:36 00:21:24 27° 265° (W) 00:25:10 437.250
RS-15 31 Jul 00:23:45 00:34:21 49° 321° (NW) 00:45:19 29.354- 29.394
UKube-1 31 Jul 00:24:06 00:26:51 16° 270° (W) 00:29:26 .
YUBILEINY 31 Jul 00:26:48 00:34:37 41° 87° (E) 00:42:38 435.215
CUBEBUG 1 31 Jul 00:36:30 00:40:23 30° 264° (W) 00:44:13 437.445
ITUPSAT 1 31 Jul 00:36:39 00:38:05 11° 59° (ENE) 00:39:45 437.325
BEESAT 3 31 Jul 00:38:21 00:42:23 68° 122° (ESE) 00:46:28 437.485
UNISAT 6 31 Jul 00:38:44 00:43:05 38° 290° (WNW) 00:47:26 437.425
AUBIESAT-1 31 Jul 00:45:00 00:47:54 16° 304° (WNW) 00:50:38 437.475
POLYITAN 1 31 Jul 00:51:47 00:56:01 63° 286° (WNW) 01:00:15 437.675
AIST 1 31 Jul 00:59:50 01:03:10 22° 271° (W) 01:06:22
VELOX 1 31 Jul 00:59:53 01:01:26 11° 273° (W) 01:02:43 145.980
ESTCUBE 1 31 Jul 01:04:10 01:06:55 15° 271° (W) 01:09:28 437.505/2401.250
POPSAT HIP 1 31 Jul 01:09:40 01:13:41 41° 289° (WNW) 01:17:41 437.405
QB50P2 31 Jul 01:17:04 01:20:56 34° 290° (WNW) 01:24:46 145.880/145.840
SPROUT 31 Jul 01:18:11 01:22:07 35° 263° (W) 01:26:03 437.525
AIST 2 31 Jul 01:19:15 01:23:03 33° 116° (ESE) 01:26:54 435.215
BUGSAT 1 31 Jul 01:21:48 01:25:42 46° 288° (WNW) 01:29:37 437.445
TIGRISAT 31 Jul 01:23:51 01:26:48 16° 297° (WNW) 01:29:37 435.000
Oscar 19 31 Jul 01:24:39 01:26:37 12° 86° (E) 01:28:54 437.125/150
ANTELSAT 31 Jul 01:25:05 01:27:55 16° 297° (WNW) 01:30:36 437.575/2403.000
BEESAT 31 Jul 01:30:26 01:34:45 36° 69° (ENE) 01:39:09 436.000
ISS 31 Jul 01:33:24 01:35:56 20° 360° (N) 01:38:28 145.825
BEESAT 2 31 Jul 01:34:16 01:38:14 44° 310° (NW) 01:42:12 435.950
PHONESAT 2.4 31 Jul 01:34:17 01:37:22 28° 198° (SSW) 01:40:24 2401.200-2431.200
TISAT 1 31 Jul 01:35:58 01:39:48 35° 263° (W) 01:43:38 437.305
DUCHIFAT 1 31 Jul 01:43:56 01:47:06 20° 294° (WNW) 01:50:09 145.980
Cosmos 2504 31 Jul 01:44:55 01:46:40 11° 74° (ENE) 01:49:00 435.465 / 435.565
QB50P1 31 Jul 01:46:11 01:49:11 19° 295° (WNW) 01:52:06 145.935-145.965
NANOSAT C BR1 31 Jul 01:48:04 01:51:01 18° 295° (WNW) 01:53:52 145.865
SWISSCUBE 31 Jul 01:50:19 01:55:02 60° 72° (ENE) 01:59:47 437.505
O/OREOS (USA 219) 31 Jul 01:58:54 02:02:53 33° 106° (ESE) 02:06:59 437.305
Cosmos 2491 31 Jul 02:00:44 02:07:43 27° 278° (W) 02:14:26 435.465 / 435.565
ITUPSAT 1 31 Jul 02:10:28 02:15:17 84° 74° (ENE) 02:20:08 437.325
Gurwin Techsat 1B 31 Jul 02:13:07 02:13:51 10° 84° (E) 02:14:58 435.225
BEESAT 3 31 Jul 02:17:58 02:20:47 17° 321° (NW) 02:23:31 437.485
YUBILEINY 31 Jul 02:23:03 02:31:23 47° 288° (WNW) 02:39:45 435.215
STARS 31 Jul 02:24:42 02:26:44 14° 62° (ENE) 02:28:59 437.465
RS-15 31 Jul 02:41:22 02:50:27 26° 353° (N) 02:59:48 29.354- 29.394
ITAMSAT 1 31 Jul 02:41:26 02:44:46 18° 90° (E) 02:48:17 435.822/435.867
KKS-1 31 Jul 02:45:46 02:49:45 34° 69° (ENE) 02:53:47 437.445
AIST 2 31 Jul 02:57:49 03:01:38 30° 315° (NW) 03:05:25 435.215
Oscar 19 31 Jul 03:01:33 03:06:45 84° 288° (WNW) 03:11:57 437.125/150
BEESAT 31 Jul 03:08:36 03:12:41 27° 266° (W) 03:16:42 436.000
ISS 31 Jul 03:10:02 03:13:02 33° 20° (NNE) 03:16:03 145.825
AO-7 31 Jul 03:22:52 03:22:58 10° 81° (E) 03:23:52 29.400- 29.500
JAS-2 31 Jul 03:24:21 03:30:45 28° 89° (E) 03:37:19 435.910
MOZHAYETS 4 31 Jul 03:28:25 03:30:33 13° 61° (ENE) 03:32:53
SWISSCUBE 31 Jul 03:30:19 03:33:21 16° 271° (W) 03:36:12 437.505
Cosmos 2504 31 Jul 03:30:24 03:37:25 70° 94° (E) 03:45:00 435.465 / 435.565
O/OREOS (USA 219) 31 Jul 03:38:33 03:42:23 27° 304° (NW) 03:46:13 437.305
Gurwin Techsat 1B 31 Jul 03:49:27 03:54:48 83° 102° (ESE) 04:00:08 435.225
ITUPSAT 1 31 Jul 03:52:25 03:53:55 11° 274° (W) 03:55:07 437.325
STARS 31 Jul 03:58:21 04:02:41 68° 257° (WSW) 04:07:04 437.465
ITAMSAT 1 31 Jul 04:19:39 04:24:46 61° 288° (WNW) 04:29:51 435.822/435.867
KKS-1 31 Jul 04:22:51 04:26:28 24° 266° (W) 04:30:02 437.445
Oscar 19 31 Jul 04:43:07 04:45:24 13° 302° (WNW) 04:47:27 437.125/150
ISS 31 Jul 04:46:24 04:49:33 46° 218° (SW) 04:52:42 145.825
RS-15 31 Jul 04:57:12 05:07:24 35° 27° (NNE) 05:18:10 29.354- 29.394
MOZHAYETS 4 31 Jul 05:02:34 05:07:12 77° 258° (WSW) 05:11:54
DANDE 31 Jul 05:05:51 05:08:59 37° 99° (E) 05:11:38 436.750
JAS-2 31 Jul 05:08:36 05:16:21 69° 288° (WNW) 05:24:04 435.910
AO-7 31 Jul 05:09:38 05:17:52 60° 103° (ESE) 05:26:03 29.400- 29.500
GONETS M04 31 Jul 05:11:36 05:16:26 17° 77° (ENE) 05:21:45
HORYU 2 31 Jul 05:17:28 05:22:01 81° 103° (ESE) 05:26:32 437.375
CUBESAT XI-V 31 Jul 05:18:05 05:20:50 16° 63° (ENE) 05:23:45 437.345
Cosmos 2504 31 Jul 05:24:50 05:30:33 24° 298° (WNW) 05:36:19 435.465 / 435.565
Gurwin Techsat 1B 31 Jul 05:31:04 05:34:10 15° 301° (WNW) 05:37:03 435.225
CUSAT 1 31 Jul 05:35:38 05:38:19 33° 283° (WNW) 05:40:46 437.405
Cubesat XI-IV 31 Jul 06:22:21 06:25:13 15° 88° (E) 06:28:20 437.490
STRAND 1 31 Jul 06:52:51 06:57:43 45° 70° (ENE) 07:02:38 437.568
CUBESAT XI-V 31 Jul 06:53:10 06:57:49 63° 259° (W) 07:02:29 437.345
PRISM 31 Jul 06:55:02 06:58:50 35° 70° (ENE) 07:02:40 437.425
JAS-2 31 Jul 06:55:30 07:00:12 17° 306° (NW) 07:04:36 435.910
HORYU 2 31 Jul 06:56:09 06:58:04 12° 299° (WNW) 06:59:47 437.375
AO-7 31 Jul 07:02:58 07:10:21 36° 302° (WNW) 07:17:33 29.400- 29.500
GONETS M04 31 Jul 07:03:22 07:12:05 84° 97° (E) 07:20:49
RS-15 31 Jul 07:10:03 07:21:51 84° 55° (NE) 07:34:07 29.354- 29.394
CUTE-I 31 Jul 07:17:05 07:22:12 46° 98° (E) 07:27:19 437.470
BEESAT 3 31 Jul 07:19:37 07:20:49 11° 32° (NNE) 07:22:09 437.485
